Regional Weather Roundup
Issued by NWS Newport/Morehead, NC

Current Version | Previous Version | Graphics & Text | Print | Product List | Glossary Off
Versions: 1 2 3 4 5 6 7 8 9 10 11 12 13 14 15 16 17 18 19 20 21 22 23 24 25 26 27 28 29 30 31 32 33 34 35 36 37 38 39 40 41 42 43 44 45 46 47 48 49 50

000
ASUS42 KMHX 211925
RWRMHX
WEATHER ROUNDUP FOR EASTERN NORTH CAROLINA
NATIONAL WEATHER SERVICE NEWPORT/MOREHEAD CITY NC
200 PM EST TUE NOV 21 2017

NOTE: "FAIR" INDICATES FEW OR NO CLOUDS BELOW 12,000 FEET
WITH NO SIGNIFICANT WEATHER AND/OR OBSTRUCTIONS TO VISIBILITY

NCZ015>017-031-032-045>047-102-103-212000-
NORTH COAST

CITY           SKY/WX    TMP DP  RH WIND       PRES   REMARKS
EDENTON        CLOUDY    62  47  59 CALM      30.17F
ELIZABETH CITY CLOUDY    63  49  60 SW3       30.18F
KITTY HAWK     PTCLDY    59  46  61 CALM      30.17F
MANTEO         CLOUDY    58  46  63 NE3       30.19F

$$

NCZ045>047-081-094-103-104-212000-
CENTRAL COAST

CITY           SKY/WX    TMP DP  RH WIND       PRES   REMARKS
FRISCO         CLOUDY    64  53  67 NE5       30.17F

$$

NCZ095-097-098-100-101-212000-
SOUTHERN COAST

CITY           SKY/WX    TMP DP  RH WIND       PRES   REMARKS
BEAUFORT       CLOUDY    66  54  65 E6        30.14F
CEDAR ISLAND   NOT AVBL
JACKSONVILLE   CLOUDY    67  53  61 E6        30.13F
PINEY ISLAND   NOT AVBL
WILMINGTON     MOSUNNY   68  53  58 E8        30.11F


$$

NCZ011>013-027>030-043-044-078>080-089-090>093-098-212000-
COASTAL PLAIN

CITY           SKY/WX    TMP DP  RH WIND       PRES   REMARKS
AHOSKIE        CLOUDY    62  41  46 S8        30.15F
CLINTON        CLOUDY    66  51  58 SE3       30.12F
ELIZABETHTOWN  NOT AVBL
GOLDSBORO      CLOUDY    65  48  55 SE7       30.11F
GREENVILLE     CLOUDY    64  46  52 SE6       30.15F
HAVELOCK       NOT AVBL
KENANSVILLE    CLOUDY    64  48  55 E3        30.12F
KINSTON        CLOUDY    64  48  55 E6        30.14F
NEW BERN       PTSUNNY   64  51  62 E6        30.15F
RICHLANDS      CLOUDY    66  52  60 E7        30.13F
ROCKY MOUNT    CLOUDY    62  43  49 E5        30.13F
WASHINGTON     PTSUNNY   62  48  59 E7        30.16F
WHITEVILLE     CLOUDY    65  51  60 NE5       30.10F

$$

AMZ130-135-150-152-154-156-158-170-250-252-270-ANZ085-086-088-633-658-670-212000-
MARINE OBSERVATIONS

STATION/POSITION TIME  TEMP    WIND        PRES    WAVE   SWELL
                       AIR SEA DIR/SP/G            HT/PER HT/PER
                 (UTC) (F)     (DEG/KT/KT) (MB)    (FT/S) (FT/S)
CHESAPEAKE LIGHT NOT AVBL
64 E VA BEACH    1850   59 61  280/  4/  6 1023.1    2/ 3   2/ 7
DUCK             1900   59 59  280/  3/  3 1021.5
2 E DUCK         1900      61                N/A     1/12
OREGON INLET     1900   59 53   50/  5/  7 1022.0
13E OREGON INLT  1848      63                N/A     1/ 8   2/ 8
HATTERAS CG      1900   61 57   50/  4/  9 1021.3
DIAMOND BUOY     1910   70 76  170/ 12/ 17 1021.3
CAPE LOOKOUT     1900           40/ 10/ 11 1020.7
BEAUFORT LAB     1900   65 59   60/  5/  9 1020.6
30 SE NEW RVR IN 1908   69 67  140/  6/ 10 1020.0
30 SE NEW RVR IN 1900      67                N/A     2/ 4
27 SE WRIGHTSVLE 1908   70 68  150/ 10/ 16 1019.1
5 SE WRIGHTSVLE  1908   63 64   60/ 12/ 16 1019.6
225 S CAPE HAT   1850   73 76  120/ 19/ 23 1019.0    6/ 6   2/12
41 SE CHARLESTON 1910   73 74  130/ 14/ 19 1017.0

$$




USA.gov is the U.S. government's official web portal to all federal, state and local government web resources and services.